Tracking 25701 objects as of 3-Jul-2022
HD Live streaming from Space Station
objects crossing your sky now

ATLAS 5 CENTAUR DEB

Track ATLAS 5 CENTAUR DEB now!


NORAD ID: 43971
Int'l Code: 2014-055AA
Perigee: 8,677.9 km
Apogee: 34,522.2 km
Inclination: 21.3 °
Period: 775.9 minutes
Semi major axis: 27971 km
RCS: Unknown
Launch date: September 17, 2014
Source: United States (US)
Launch site: AIR FORCE EASTERN TEST RANGE (AFETR)

Note: This is SATELLITE DEBRIS
aabbcc
Your satellite tracking list
Your tracking list is empty




NASA's NSSDC Master Catalog

Two Line Element Set (TLE):
1 43971U 14055AA  22164.81049788 -.00000058  00000-0  00000-0 0  9993
2 43971  21.2859 291.8020 4619817 266.8641  41.4048  1.85583505 25596
Source of the keplerian elements: AFSPC